WetterOnline ( https://www.wetteronline.ch )

Wetter aktuell Steinhagen

Aktuelles Wetter: Bad Salzuflen (139m)

6-stündlich | Neueste Meldungen
Ortszeit Temperatur Wetter
Mi, 27.05. 20:00 17.6° C leicht bewölkt
Mi, 27.05. 14:00 21.9° C wolkig
Mi, 27.05. 8:00 12.3° C leicht bewölkt
Mi, 27.05. 2:00 9.8° C wolkenlos
Di, 26.05. 20:00 17.2° C bedeckt
Di, 26.05. 14:00 16.7° C bedeckt
Di, 26.05. 8:00 8.5° C bedeckt
Di, 26.05. 2:00 9.1° C bedeckt
Ortszeit Temperatur Wetter
Mi, 27.05. 23:00 12.9° C bedeckt
Mi, 27.05. 22:50 12.9° C bedeckt
Mi, 27.05. 22:40 13.1° C wolkig
Mi, 27.05. 22:30 13.4° C bewölkt
Mi, 27.05. 22:20 13.4° C bewölkt
Mi, 27.05. 22:10 13.6° C wolkig
Mi, 27.05. 22:00 13.9° C bewölkt
Mi, 27.05. 21:30 15.0° C bedeckt
Mi, 27.05. 21:00 15.9° C bedeckt
Mi, 27.05. 20:30 16.7° C wolkig
Mi, 27.05. 20:00 17.6° C leicht bewölkt
Ortszeit Relative Feuchte Sichtweite
Mi, 27.05. 20:00 60% 40 km
Mi, 27.05. 14:00 36% 60 km
Mi, 27.05. 8:00 74% 35 km
Mi, 27.05. 2:00 86% 30 km
Di, 26.05. 20:00 53% 45 km
Di, 26.05. 14:00 54% >70 km
Di, 26.05. 8:00 88% 16 km
Di, 26.05. 2:00 84% 30 km
Ortszeit Relative Feuchte Sichtweite
Mi, 27.05. 23:00 59% 55 km
Mi, 27.05. 22:50 59% -
Mi, 27.05. 22:40 59% -
Mi, 27.05. 22:30 59% 50 km
Mi, 27.05. 22:20 59% -
Mi, 27.05. 22:10 57% -
Mi, 27.05. 22:00 58% 55 km
Mi, 27.05. 21:30 59% 65 km
Mi, 27.05. 21:00 61% 50 km
Mi, 27.05. 20:30 62% 40 km
Mi, 27.05. 20:00 60% 40 km
Ortszeit Niederschlagsmenge Niederschlagsart
Mi, 27.05. 20:00 0.0 l/m2 in 12 Std. -
Mi, 27.05. 14:00 0.0 l/m2 in 6 Std. -
Mi, 27.05. 8:00 0.0 l/m2 in 12 Std. -
Mi, 27.05. 2:00 0.0 l/m2 in 6 Std. -
Di, 26.05. 20:00 0.0 l/m2 in 12 Std. -
Di, 26.05. 14:00 0.0 l/m2 in 6 Std. -
Di, 26.05. 8:00 0.0 l/m2 in 12 Std. -
Di, 26.05. 2:00 0.0 l/m2 in 6 Std. -
Ortszeit Niederschlagsmenge Niederschlagsart
Mi, 27.05. 23:00 0.0 l/m2 in 1 Std. -
Mi, 27.05. 22:50 keine Meldung -
Mi, 27.05. 22:40 keine Meldung -
Mi, 27.05. 22:30 0.0 l/m2 in 1 Std. -
Mi, 27.05. 22:20 keine Meldung -
Mi, 27.05. 22:10 keine Meldung -
Mi, 27.05. 22:00 0.0 l/m2 in 1 Std. -
Mi, 27.05. 21:30 0.0 l/m2 in 1 Std. -
Mi, 27.05. 21:00 0.0 l/m2 in 1 Std. -
Mi, 27.05. 20:30 0.0 l/m2 in 1 Std. -
Mi, 27.05. 20:00 0.0 l/m2 in 1 Std. -
Ortszeit Stärke Spitze Richtung
km/h Bft. km/h Grad Sektor
Mi, 27.05. 20:00 14 3 32 360° N
Mi, 27.05. 14:00 7 2 22 250° W
Mi, 27.05. 8:00 0 0 7 - -
Mi, 27.05. 2:00 2 1 7 10° N
Di, 26.05. 20:00 0 0 14 - -
Di, 26.05. 14:00 4 1 14 120° SO
Di, 26.05. 8:00 4 1 11 40° NO
Di, 26.05. 2:00 2 1 24 320° NW
Ortszeit Stärke Spitze Richtung
km/h Bft. km/h Grad Sektor
Mi, 27.05. 23:00 11 2 25 360° N
Mi, 27.05. 22:50 11 2 - 360° N
Mi, 27.05. 22:40 7 2 - 360° N
Mi, 27.05. 22:30 11 2 26 10° N
Mi, 27.05. 22:20 11 2 - 10° N
Mi, 27.05. 22:10 11 2 - 10° N
Mi, 27.05. 22:00 14 3 36 360° N
Mi, 27.05. 21:30 15 3 37 20° N
Mi, 27.05. 21:00 18 3 32 10° N
Mi, 27.05. 20:30 14 3 32 360° N
Mi, 27.05. 20:00 14 3 32 360° N
Ortszeit Untergrenze Bedeckung Gattung
total tief tief mittel hoch
Mi, 27.05. 20:00 1500 m 3/8 2/8 - - -
Mi, 27.05. 14:00 1500 m 7/8 5/8 - - -
Mi, 27.05. 8:00 10500 m 3/8 0/8 - - -
Mi, 27.05. 2:00 - 0/8 0/8 - - -
Di, 26.05. 20:00 5400 m 8/8 8/8 - - -
Di, 26.05. 14:00 1470 m 8/8 8/8 - - -
Di, 26.05. 8:00 270 m 8/8 8/8 - - -
Di, 26.05. 2:00 540 m 8/8 8/8 - - -
Ortszeit Bedeckungsgrad in Achtel und Wolkenuntergrenze
Mi, 27.05. 23:00 8(3300m) 8(4200m)
Mi, 27.05. 22:50 8(3300m) 8(4200m)
Mi, 27.05. 22:40 2(1800m) 8(3300m) 8(4200m)
Mi, 27.05. 22:30 4(1800m) 8(3600m) 8(4200m)
Mi, 27.05. 22:20 4(1800m) 8(3600m) 8(4200m)
Mi, 27.05. 22:10 2(1800m) 8(3600m) 8(4200m)
Mi, 27.05. 22:00 4(1410m) 8(3900m) 8(5100m)
Mi, 27.05. 21:30 4(1380m) 8(1500m) 8(4200m)
Mi, 27.05. 21:00 4(1470m) 8(1500m)
Mi, 27.05. 20:30 5(1500m) 7(6300m)
Mi, 27.05. 20:00 2(1500m) 3(9000m) 6(9000m)
Ortszeit Luftdruck NN (hPa) Tendenz (hPa in 3 Std.)
Mi, 27.05. 20:00 1031 - 0,1
Mi, 27.05. 14:00 1032 - 1,0
Mi, 27.05. 8:00 1034 + 0,1
Mi, 27.05. 2:00 1035 - 0,3
Di, 26.05. 20:00 1035 - 0,4
Di, 26.05. 14:00 1036 - 0,4
Di, 26.05. 8:00 1036 + 1,0
Di, 26.05. 2:00 1035 + 0,2
Ortszeit Luftdruck NN (hPa) Tendenz (hPa in 3 Std.)
Mi, 27.05. 23:00 1033 + 2,0
Mi, 27.05. 22:50 1033 keine Meldung
Mi, 27.05. 22:40 1033 keine Meldung
Mi, 27.05. 22:30 1033 + 1,8
Mi, 27.05. 22:20 1033 keine Meldung
Mi, 27.05. 22:10 1033 keine Meldung
Mi, 27.05. 22:00 1033 + 1,7
Mi, 27.05. 21:30 1032 + 1,4
Mi, 27.05. 21:00 1032 + 0,6
Mi, 27.05. 20:30 1031 + 0,2
Mi, 27.05. 20:00 1031 - 0,1
Ortszeit Schneehöhe (cm)
Mi, 27.05. 20:00 -
Mi, 27.05. 14:00 -
Mi, 27.05. 8:00 -
Mi, 27.05. 2:00 -
Di, 26.05. 20:00 -
Di, 26.05. 14:00 -
Di, 26.05. 8:00 -
Di, 26.05. 2:00 -
Ortszeit Schneehöhe (cm)
Mi, 27.05. 23:00 -
Mi, 27.05. 22:50 -
Mi, 27.05. 22:40 -
Mi, 27.05. 22:30 -
Mi, 27.05. 22:20 -
Mi, 27.05. 22:10 -
Mi, 27.05. 22:00 -
Mi, 27.05. 21:30 -
Mi, 27.05. 21:00 -
Mi, 27.05. 20:30 -
Mi, 27.05. 20:00 -
Link zu dieser Seite / Seite empfehlen

Das Wetter in ...